WX7FGZ-3 Weather Reports


time (UTC)temp
C
wind
direction
speed
KPH
gust
KPH
rain 1hr
cm
rain 24hr
cm
rain mn
cm
humidity
%
barometer
mb
20260508130941 5 225 8.0 9.7 0.00 0.00 0.00 46 1013.9
20260508125940 4 226 8.0 14.5 0.00 0.00 0.00 47 1013.9
20260508125440 3 231 6.4 12.9 0.00 0.00 0.00 49 1014.0
20260508124940 3 232 6.4 11.3 0.00 0.00 0.00 49 1014.0
20260508124440 3 232 6.4 17.7 0.00 0.00 0.00 48 1014.0
20260508123940 3 233 6.4 12.9 0.00 0.00 0.00 50 1014.1
20260508123439 3 233 6.4 11.3 0.00 0.00 0.00 48 1014.1
20260508122939 3 233 6.4 9.7 0.00 0.00 0.00 49 1014.0
20260508122440 3 233 6.4 9.7 0.00 0.00 0.00 50 1014.0
20260508121938 3 233 6.4 12.9 0.00 0.00 0.00 50 1013.9
20260508121438 3 233 6.4 11.3 0.00 0.00 0.00 50 1013.9
20260508120937 3 232 8.0 11.3 0.00 0.00 0.00 51 1014.0
20260508120438 3 232 8.0 16.1 0.00 0.00 0.00 50 1014.0
20260508115937 3 237 8.0 14.5 0.00 0.00 0.00 50 1014.0
20260508115437 3 238 6.4 12.9 0.00 0.00 0.00 51 1014.0
20260508114936 3 239 6.4 9.7 0.00 0.00 0.00 53 1014.1
20260508111935 3 240 6.4 9.7 0.00 0.00 0.00 51 1014.1
20260508110934 3 240 6.4 12.9 0.00 0.00 0.00 47 1014.2
20260508105933 3 240 8.0 14.5 0.00 0.00 0.00 47 1014.3
20260508105433 3 240 6.4 14.5 0.00 0.00 0.00 48 1014.3
20260508104933 3 240 6.4 9.7 0.00 0.00 0.00 48 1014.4
20260508104433 3 240 6.4 16.1 0.00 0.00 0.00 49 1014.3
20260508103932 3 240 6.4 14.5 0.00 0.00 0.00 49 1014.2
20260508103432 3 242 4.8 12.9 0.00 0.00 0.00 49 1014.4
20260508102932 3 242 4.8 9.7 0.00 0.00 0.00 49 1014.4
20260508102433 4 242 6.4 9.7 0.00 0.00 0.00 48 1014.3
20260508101931 4 242 6.4 12.9 0.00 0.00 0.00 49 1014.3
20260508101431 3 243 6.4 12.9 0.00 0.00 0.00 48 1014.2
20260508100931 3 243 6.4 9.7 0.00 0.00 0.00 48 1014.2
20260508100431 3 243 8.0 12.9 0.00 0.00 0.00 47 1014.3
20260508095430 4 244 6.4 12.9 0.00 0.00 0.00 48 1014.3
20260508094929 4 244 8.0 12.9 0.00 0.00 0.00 49 1014.4
20260508094429 4 244 6.4 16.1 0.00 0.00 0.00 49 1014.4
20260508093929 4 247 8.0 12.9 0.00 0.00 0.00 48 1014.4
20260508093428 4 247 8.0 12.9 0.00 0.00 0.00 45 1014.4
20260508092428 4 250 6.4 14.5 0.00 0.00 0.00 48 1014.4
20260508091928 4 255 6.4 11.3 0.00 0.00 0.00 46 1014.4
20260508091427 4 255 8.0 12.9 0.00 0.00 0.00 46 1014.4
20260508090927 4 257 8.0 12.9 0.00 0.00 0.00 46 1014.4
20260508090427 4 258 6.4 14.5 0.00 0.00 0.00 46 1014.5
20260508085926 4 261 4.8 12.9 0.00 0.00 0.00 47 1014.5
20260508085426 4 261 4.8 9.7 0.00 0.00 0.00 48 1014.5
20260508084926 4 261 4.8 11.3 0.00 0.00 0.00 47 1014.5
20260508084426 5 261 4.8 9.7 0.00 0.00 0.00 47 1014.6
20260508083925 5 261 4.8 9.7 0.00 0.00 0.00 46 1014.6
20260508083425 5 261 6.4 12.9 0.00 0.00 0.00 46 1014.6
20260508082925 5 261 6.4 9.7 0.00 0.00 0.00 45 1014.6
20260508082425 5 261 6.4 16.1 0.00 0.00 0.00 45 1014.6
20260508081924 5 263 4.8 14.5 0.00 0.00 0.00 45 1014.7
20260508081424 5 264 6.4 9.7 0.00 0.00 0.00 45 1014.6
20260508080924 5 264 6.4 11.3 0.00 0.00 0.00 46 1014.6
20260508080424 5 264 6.4 12.9 0.00 0.00 0.00 46 1014.6
20260508075923 5 264 6.4 11.3 0.00 0.00 0.00 46 1014.7
20260508075423 5 264 6.4 11.3 0.00 0.00 0.00 46 1014.8
20260508074923 5 265 4.8 12.9 0.00 0.00 0.00 46 1014.8
20260508074423 5 266 6.4 9.7 0.00 0.00 0.00 47 1014.9
20260508073922 5 267 6.4 12.9 0.00 0.00 0.00 45 1014.9
20260508073422 5 267 6.4 12.9 0.00 0.00 0.00 44 1014.9
20260508072421 5 268 4.8 11.3 0.00 0.00 0.00 45 1015.0
20260508071921 6 268 6.4 9.7 0.00 0.00 0.00 45 1015.1
20260508071420 6 268 6.4 12.9 0.00 0.00 0.00 44 1015.2
20260508070920 6 270 6.4 12.9 0.00 0.00 0.00 43 1015.2
20260508070420 6 271 6.4 11.3 0.00 0.00 0.00 43 1015.3
20260508065920 6 271 6.4 12.9 0.00 0.00 0.00 43 1015.4
20260508065419 6 273 6.4 12.9 0.00 0.00 0.00 42 1015.4
20260508064919 6 275 6.4 14.5 0.00 0.00 0.00 41 1015.5
20260508064419 6 282 6.4 12.9 0.00 0.00 0.00 41 1015.5
20260508063918 6 288 4.8 11.3 0.00 0.00 0.00 41 1015.6
20260508063418 6 290 4.8 8.0 0.00 0.00 0.00 41 1015.5
20260508062918 6 290 4.8 11.3 0.00 0.00 0.00 42 1015.6
20260508062418 6 292 4.8 11.3 0.00 0.00 0.00 42 1015.5
20260508061917 6 294 4.8 11.3 0.00 0.00 0.00 43 1015.6
20260508061417 6 297 4.8 8.0 0.00 0.00 0.00 43 1015.6
20260508060917 6 298 6.4 11.3 0.00 0.00 0.00 44 1015.6
20260508060417 6 302 6.4 11.3 0.00 0.00 0.00 44 1015.6
20260508055416 6 309 4.8 8.0 0.00 0.00 0.00 42 1015.7
20260508054416 6 312 6.4 9.7 0.00 0.00 0.00 43 1015.9
20260508053915 6 314 4.8 9.7 0.00 0.00 0.00 42 1015.8
20260508053415 6 315 4.8 12.9 0.00 0.00 0.00 41 1015.8
20260508052415 6 320 3.2 9.7 0.00 0.00 0.00 41 1016.0
20260508051914 6 321 3.2 6.4 0.00 0.00 0.00 40 1015.9
20260508050913 6 321 3.2 8.0 0.00 0.00 0.00 40 1016.0
20260508045412 6 321 4.8 8.0 0.00 0.00 0.00 39 1016.2
20260508044912 6 323 4.8 9.7 0.00 0.00 0.00 38 1016.2
20260508043411 7 327 4.8 6.4 0.00 0.00 0.00 40 1016.2
20260508035910 8 329 3.2 6.4 0.00 0.00 0.00 37 1016.1
20260508035409 8 331 3.2 6.4 0.00 0.00 0.00 35 1016.0
20260508034410 7 333 1.6 3.2 0.00 0.00 0.00 37 1016.1
20260508032408 7 333 0.0 3.2 0.00 0.00 0.00 33 1015.5
20260508031907 8 333 0.0 0.0 0.00 0.00 0.00 32 1015.6
20260508031407 8 333 0.0 0.0 0.00 0.00 0.00 29 1015.6
20260508030407 10 333 0.0 0.0 0.00 0.00 0.00 29 1015.5
20260508025906 10 333 0.0 0.0 0.00 0.00 0.00 29 1015.5
20260508025406 10 333 0.0 1.6 0.00 0.00 0.00 28 1015.5
20260508024905 11 333 0.0 0.0 0.00 0.00 0.00 28 1015.4
20260508024406 11 333 0.0 0.0 0.00 0.00 0.00 27 1015.2
20260508021904 13 333 1.6 3.2 0.00 0.00 0.00 25 1015.1
20260508020903 14 333 4.8 6.4 0.00 0.00 0.00 24 1015.0
20260508015402 15 333 6.4 9.7 0.00 0.00 0.00 22 1014.7
20260508014902 16 333 8.0 12.9 0.00 0.00 0.00 22 1014.8
20260508014402 16 333 8.0 16.1 0.00 0.00 0.00 21 1014.7
20260508013902 16 330 9.7 14.5 0.00 0.00 0.00 21 1014.8
20260508013401 16 333 9.7 16.1 0.00 0.00 0.00 21 1014.9
20260508012901 16 332 11.3 19.3 0.00 0.00 0.00 20 1014.8
20260508012401 17 335 11.3 16.1 0.00 0.00 0.00 20 1014.8
20260508011900 17 335 11.3 19.3 0.00 0.00 0.00 19 1014.7
20260508011400 17 344 11.3 19.3 0.00 0.00 0.00 18 1014.8
20260508010900 17 318 11.3 16.1 0.00 0.00 0.00 19 1014.8
20260508010400 17 309 11.3 19.3 0.00 0.00 0.00 18 1014.8
20260508005859 18 318 9.7 16.1 0.00 0.00 0.00 18 1014.8
20260508005359 18 355 11.3 19.3 0.00 0.00 0.00 16 1014.8
20260508004858 18 355 11.3 17.7 0.00 0.00 0.00 17 1014.8
20260508004358 18 0 11.3 16.1 0.00 0.00 0.00 16 1014.8
20260508003859 18 355 12.9 19.3 0.00 0.00 0.00 16 1014.9
20260508003358 18 321 12.9 19.3 0.00 0.00 0.00 16 1014.9
20260508002858 18 338 12.9 22.5 0.00 0.00 0.00 15 1015.0
20260508001356 18 302 11.3 17.7 0.00 0.00 0.00 15 1015.2
20260508000856 18 355 12.9 19.3 0.00 0.00 0.00 15 1015.2
20260508000357 18 0 11.3 22.5 0.00 0.00 0.00 15 1015.2
20260507235856 18 326 11.3 19.3 0.00 0.00 0.00 15 1015.3
20260507235355 18 335 12.9 19.3 0.00 0.00 0.00 16 1015.3
20260507234356 18 322 14.5 22.5 0.00 0.00 0.00 14 1015.5
20260507233854 19 336 12.9 22.5 0.00 0.00 0.00 15 1015.6
20260507233354 19 330 12.9 19.3 0.00 0.00 0.00 17 1015.6
20260507232854 19 347 11.3 17.7 0.00 0.00 0.00 17 1015.6
20260507232354 19 355 9.7 20.9 0.00 0.00 0.00 16 1015.5
20260507231853 19 0 8.0 19.3 0.00 0.00 0.00 16 1015.6
20260507231353 19 336 6.4 16.1 0.00 0.00 0.00 16 1015.6
20260507230853 19 327 9.7 12.9 0.00 0.00 0.00 18 1015.6
20260507230353 19 323 9.7 20.9 0.00 0.00 0.00 17 1015.7
20260507225852 19 30 9.7 17.7 0.00 0.00 0.00 16 1015.7
20260507225352 19 316 11.3 17.7 0.00 0.00 0.00 17 1015.8
20260507224852 18 355 9.7 22.5 0.00 0.00 0.00 16 1015.8
20260507223851 18 15 9.7 20.9 0.00 0.00 0.00 16 1015.9
20260507223351 19 337 9.7 20.9 0.00 0.00 0.00 15 1015.9
20260507221850 18 355 11.3 20.9 0.00 0.00 0.00 17 1016.0
20260507220849 19 23 11.3 19.3 0.00 0.00 0.00 16 1016.2
20260507215849 18 313 9.7 19.3 0.00 0.00 0.00 15 1016.2
20260507214848 18 5 9.7 22.5 0.00 0.00 0.00 14 1016.6
20260507205845 18 307 11.3 22.5 0.00 0.00 0.00 18 1017.2
20260507204846 18 24 14.5 16.1 0.00 0.00 0.00 18 1017.3
20260507204345 18 331 16.1 22.5 0.00 0.00 0.00 17 1017.6
20260507203344 17 293 12.9 22.5 0.00 0.00 0.00 18 1017.6
20260507202843 17 15 12.9 24.1 0.00 0.00 0.00 16 1017.7
20260507202531 12 340 8.0 16.1 0.00 0.00 0.00 28 1020.6
20260507202344 17 322 11.3 19.3 0.00 0.00 0.00 17 1017.8
20260507201843 17 0 12.9 22.5 0.00 0.00 0.00 17 1017.8
20260507200842 18 313 11.3 20.9 0.00 0.00 0.00 18 1017.9
20260507195842 17 323 12.9 20.9 0.00 0.00 0.00 15 1017.9
20260507195341 17 338 12.9 20.9 0.00 0.00 0.00 18 1017.9
20260507194841 17 355 12.9 20.9 0.00 0.00 0.00 17 1017.9
20260507194341 17 276 12.9 20.9 0.00 0.00 0.00 19 1017.9
20260507193841 17 316 14.5 20.9 0.00 0.00 0.00 18 1018.1
20260507192840 16 0 12.9 22.5 0.00 0.00 0.00 18 1018.1
20260507191840 17 11 11.3 24.1 0.00 0.00 0.00 21 1018.5
20260507191339 17 342 11.3 24.1 0.00 0.00 0.00 19 1018.5
20260507190839 17 344 11.3 17.7 0.00 0.00 0.00 19 1018.7
20260507190339 17 355 11.3 20.9 0.00 0.00 0.00 22 1018.7
20260507185838 16 338 9.7 16.1 0.00 0.00 0.00 21 1018.8
20260507185338 16 341 11.3 17.7 0.00 0.00 0.00 21 1018.9
20260507184838 16 348 12.9 17.7 0.00 0.00 0.00 22 1019.0
20260507184338 16 347 11.3 25.7 0.00 0.00 0.00 22 1019.0
20260507183837 16 355 11.3 19.3 0.00 0.00 0.00 22 1019.0
20260507183337 16 355 12.9 20.9 0.00 0.00 0.00 23 1019.3
20260507182337 16 355 11.3 19.3 0.00 0.00 0.00 23 1019.4
20260507181836 15 350 11.3 19.3 0.00 0.00 0.00 24 1019.4
20260507180835 15 355 9.7 19.3 0.00 0.00 0.00 25 1019.4
20260507180335 15 345 9.7 17.7 0.00 0.00 0.00 25 1019.5
20260507175835 14 355 11.3 17.7 0.00 0.00 0.00 25 1019.7
20260507175335 14 355 9.7 17.7 0.00 0.00 0.00 25 1019.7
20260507174335 14 342 9.7 16.1 0.00 0.00 0.00 23 1019.9
20260507173834 14 342 9.7 17.7 0.00 0.00 0.00 25 1020.1
20260507172833 13 355 11.3 17.7 0.00 0.00 0.00 26 1020.0
20260507172333 13 355 11.3 19.3 0.00 0.00 0.00 26 1020.0
20260507171832 13 5 11.3 17.7 0.00 0.00 0.00 26 1019.9
20260507165831 13 0 8.0 17.7 0.00 0.00 0.00 27 1020.1
20260507165331 12 355 9.7 17.7 0.00 0.00 0.00 27 1020.1
20260507164831 12 355 9.7 16.1 0.00 0.00 0.00 27 1020.2
20260507164331 12 355 9.7 14.5 0.00 0.00 0.00 27 1020.3
20260507163830 12 355 9.7 19.3 0.00 0.00 0.00 27 1020.3
20260507162331 12 355 12.9 19.3 0.00 0.00 0.00 27 1020.4
20260507161829 12 355 9.7 22.5 0.00 0.00 0.00 27 1020.4
20260507155828 12 340 8.0 16.1 0.00 0.00 0.00 28 1020.6
20260507155002 11 345 8.0 14.5 0.00 0.00 0.00 28 1020.4
20260507154827 11 345 8.0 14.5 0.00 0.00 0.00 28 1020.4
20260507152025 11 322 8.0 17.7 0.00 0.00 0.00 28 1021.0
20260507151826 11 322 8.0 17.7 0.00 0.00 0.00 28 1021.0
20260507151325 11 355 9.7 19.3 0.00 0.00 0.00 27 1020.8
20260507150903 11 47 8.0 14.5 0.00 0.00 0.00 28 1021.0
20260507150825 11 47 8.0 14.5 0.00 0.00 0.00 28 1021.0
20260507150325 10 56 4.8 16.1 0.00 0.00 0.00 29 1020.7
20260507145824 10 107 0.0 4.8 0.00 0.00 0.00 28 1020.8
20260507145324 10 107 0.0 3.2 0.00 0.00 0.00 29 1020.9
20260507144824 10 107 0.0 3.2 0.00 0.00 0.00 31 1020.9
20260507144324 9 107 0.0 3.2 0.00 0.00 0.00 31 1021.1
20260507143323 8 107 0.0 3.2 0.00 0.00 0.00 34 1020.9
20260507142823 7 107 0.0 3.2 0.00 0.00 0.00 37 1020.8
20260507141822 5 107 0.0 1.6 0.00 0.00 0.00 41 1020.8
20260507141322 5 107 0.0 0.0 0.00 0.00 0.00 42 1020.8
20260507140822 4 107 0.0 1.6 0.00 0.00 0.00 44 1021.2
20260507140322 3 107 1.6 4.8 0.00 0.00 0.00 46 1021.0
20260507135821 2 107 1.6 4.8 0.00 0.00 0.00 48 1021.0
20260507135321 2 107 1.6 4.8 0.00 0.00 0.00 49 1020.9
20260507134821 1 107 3.2 4.8 0.00 0.00 0.00 51 1020.9
20260507134321 0 107 3.2 6.4 0.00 0.00 0.00 51 1020.9
20260507133820 0 107 3.2 9.7 0.00 0.00 0.00 53 1021.0
20260507132819 0 107 4.8 6.4 0.00 0.00 0.00 58 1020.9
20260507132319 -1 107 4.8 9.7 0.00 0.00 0.00 58 1020.9
20260507131819 -1 107 4.8 9.7 0.00 0.00 0.00 58 1020.9
20260507131318 -1 107 3.2 6.4 0.00 0.00 0.00 59 1020.8